TimeHST,TemperatureF,Dew PointF,Humidity,Sea Level PressureIn,VisibilityMPH,Wind Direction,Wind SpeedMPH,Gust SpeedMPH,PrecipitationIn,Events,Conditions,WindDirDegrees,DateUTC
12:53 AM,79.0,68.0,69,29.91,10.0,East,4.6,-,N/A,,Clear,90,2013-09-13 10:53:00
1:53 AM,79.0,70.0,74,29.90,10.0,East,3.5,-,N/A,,Scattered Clouds,80,2013-09-13 11:53:00
2:53 AM,79.0,64.9,62,29.87,10.0,NE,3.5,-,N/A,,Clear,40,2013-09-13 12:53:00
3:53 AM,79.0,66.0,64,29.87,10.0,East,4.6,-,N/A,,Clear,90,2013-09-13 13:53:00
4:53 AM,78.1,66.0,66,29.87,10.0,East,5.8,-,N/A,,Clear,80,2013-09-13 14:53:00
5:53 AM,75.9,66.0,71,29.88,10.0,NE,3.5,-,N/A,,Clear,40,2013-09-13 15:53:00
6:53 AM,78.1,64.9,64,29.89,10.0,Calm,Calm,-,N/A,,Clear,0,2013-09-13 16:53:00
7:53 AM,80.1,70.0,71,29.90,10.0,Calm,Calm,-,N/A,,Clear,0,2013-09-13 17:53:00
8:53 AM,81.0,72.0,74,29.91,10.0,WSW,4.6,-,N/A,,Clear,250,2013-09-13 18:53:00
9:53 AM,82.9,71.1,67,29.91,10.0,WSW,8.1,-,N/A,,Clear,250,2013-09-13 19:53:00
10:53 AM,84.9,71.1,63,29.90,10.0,SW,11.5,-,N/A,,Partly Cloudy,230,2013-09-13 20:53:00
11:53 AM,84.0,71.1,65,29.88,10.0,SSW,11.5,-,N/A,,Overcast,210,2013-09-13 21:53:00
12:53 PM,84.9,71.1,63,29.87,10.0,SSW,11.5,-,N/A,,Overcast,200,2013-09-13 22:53:00
1:53 PM,84.0,71.1,65,29.85,10.0,SW,9.2,-,N/A,,Overcast,230,2013-09-13 23:53:00
2:53 PM,84.9,71.1,63,29.84,10.0,WSW,9.2,-,N/A,,Partly Cloudy,240,2013-09-14 00:53:00
3:53 PM,84.9,72.0,65,29.84,10.0,SW,11.5,-,N/A,,Scattered Clouds,230,2013-09-14 01:53:00
4:53 PM,82.9,72.0,69,29.85,10.0,WSW,11.5,-,N/A,,Mostly Cloudy,240,2013-09-14 02:53:00
5:53 PM,82.9,73.0,72,29.86,10.0,WSW,12.7,-,N/A,,Overcast,240,2013-09-14 03:53:00
6:53 PM,81.0,73.0,77,29.88,10.0,WSW,10.4,-,0.00,,Overcast,250,2013-09-14 04:53:00
7:46 PM,80.6,73.4,79,29.89,9.0,West,6.9,-,0.02,Rain,Heavy Rain,260,2013-09-14 05:46:00
7:53 PM,80.1,73.0,79,29.89,10.0,West,5.8,-,0.03,Rain,Rain,280,2013-09-14 05:53:00
8:29 PM,80.6,73.4,79,29.90,10.0,South,3.5,-,0.01,,Overcast,170,2013-09-14 06:29:00
8:53 PM,77.0,70.0,79,29.91,10.0,West,9.2,-,0.01,,Overcast,270,2013-09-14 06:53:00
9:53 PM,77.0,71.1,82,29.92,10.0,SE,8.1,-,N/A,,Mostly Cloudy,140,2013-09-14 07:53:00
10:53 PM,77.0,71.1,82,29.90,10.0,SE,10.4,-,N/A,,Clear,140,2013-09-14 08:53:00
11:53 PM,75.9,70.0,82,29.88,10.0,North,4.6,-,N/A,,Clear,10,2013-09-14 09:53:00